| time (UTC) | temp F | wind direction | speed knots | gust knots | rain 1hr in | rain 24hr in | rain mn in | humidity % | barometer mb |
| 20260508182910 | 51 | 298 | 9.6 | 14.8 | 0.00 | 0.00 | 0.00 | 100 | 1017.8 |
| 20260508182407 | 51 | 306 | 9.6 | 17.4 | 0.00 | 0.00 | 0.00 | 100 | 1017.7 |
| 20260508181911 | 51 | 296 | 8.7 | 17.4 | 0.00 | 0.00 | 0.00 | 100 | 1017.6 |
| 20260508181406 | 51 | 298 | 7.8 | 15.6 | 0.00 | 0.00 | 0.00 | 100 | 1017.6 |
| 20260508180905 | 51 | 341 | 7.0 | 12.2 | 0.00 | 0.00 | 0.00 | 100 | 1017.6 |
| 20260508180646 | 52 | 296 | 7.0 | 13.9 | 0.00 | 0.00 | 0.00 | 100 | 1017.5 |
| 20260508175907 | 52 | 297 | 7.8 | 13.9 | 0.00 | 0.00 | 0.00 | 100 | 1017.5 |
| 20260508175405 | 52 | 355 | 7.0 | 13.9 | 0.00 | 0.00 | 0.00 | 100 | 1017.4 |
| 20260508174906 | 52 | 296 | 7.0 | 16.5 | 0.00 | 0.00 | 0.00 | 100 | 1017.3 |
| 20260508174404 | 53 | 336 | 9.6 | 16.5 | 0.00 | 0.00 | 0.00 | 100 | 1017.2 |
| 20260508173905 | 53 | 306 | 11.3 | 16.5 | 0.00 | 0.00 | 0.00 | 100 | 1017.1 |
| 20260508173406 | 53 | 318 | 10.4 | 16.5 | 0.00 | 0.00 | 0.00 | 100 | 1017.0 |
| 20260508172912 | 53 | 281 | 11.3 | 20.0 | 0.00 | 0.00 | 0.00 | 100 | 1016.9 |
| 20260508172410 | 54 | 295 | 12.2 | 20.0 | 0.00 | 0.00 | 0.00 | 100 | 1016.8 |
| 20260508171858 | 54 | 303 | 11.3 | 17.4 | 0.00 | 0.00 | 0.00 | 100 | 1016.7 |
| 20260508171645 | 54 | 306 | 11.3 | 20.0 | 0.00 | 0.00 | 0.00 | 100 | 1016.6 |
| 20260508170904 | 54 | 274 | 11.3 | 20.0 | 0.00 | 0.00 | 0.00 | 100 | 1016.5 |
| 20260508170359 | 54 | 294 | 12.2 | 19.1 | 0.00 | 0.00 | 0.00 | 100 | 1016.5 |
| 20260508165857 | 54 | 306 | 13.0 | 20.0 | 0.00 | 0.00 | 0.00 | 100 | 1016.5 |
| 20260508165418 | 53 | 240 | 11.3 | 18.2 | 0.00 | 0.00 | 0.00 | 100 | 1016.2 |
| 20260508165400 | 54 | 282 | 12.2 | 20.0 | 0.00 | 0.00 | 0.00 | 100 | 1016.3 |
| 20260508164358 | 52 | 289 | 10.4 | 17.4 | 0.00 | 0.00 | 0.00 | 100 | 1016.2 |
| 20260508163859 | 53 | 283 | 9.6 | 17.4 | 0.00 | 0.00 | 0.00 | 100 | 1016.1 |
| 20260508163405 | 53 | 325 | 11.3 | 20.0 | 0.00 | 0.00 | 0.00 | 100 | 1016.2 |
| 20260508162857 | 53 | 272 | 13.9 | 24.3 | 0.00 | 0.00 | 0.00 | 100 | 1016.0 |
| 20260508162400 | 53 | 269 | 13.0 | 24.3 | 0.00 | 0.00 | 0.00 | 100 | 1015.9 |
| 20260508161859 | 53 | 279 | 9.6 | 20.9 | 0.00 | 0.00 | 0.00 | 100 | 1015.9 |
| 20260508161358 | 53 | 337 | 9.6 | 19.1 | 0.00 | 0.00 | 0.00 | 100 | 1015.9 |
| 20260508160856 | 53 | 297 | 12.2 | 19.1 | 0.00 | 0.00 | 0.00 | 100 | 1015.8 |
| 20260508160406 | 53 | 271 | 10.4 | 17.4 | 0.00 | 0.00 | 0.00 | 100 | 1015.9 |
| 20260508160357 | 53 | 294 | 12.2 | 18.2 | 0.00 | 0.00 | 0.00 | 100 | 1015.8 |
| 20260508155629 | 53 | 287 | 11.3 | 19.1 | 0.00 | 0.00 | 0.00 | 100 | 1015.9 |
| 20260508154854 | 53 | 315 | 11.3 | 19.1 | 0.00 | 0.00 | 0.00 | 100 | 1015.8 |
| 20260508154353 | 53 | 271 | 11.3 | 19.1 | 0.00 | 0.00 | 0.00 | 100 | 1015.8 |
| 20260508153853 | 53 | 284 | 11.3 | 19.1 | 0.00 | 0.00 | 0.00 | 100 | 1015.7 |
| 20260508153353 | 53 | 292 | 10.4 | 19.1 | 0.00 | 0.00 | 0.00 | 100 | 1015.6 |
| 20260508152855 | 53 | 310 | 10.4 | 20.9 | 0.00 | 0.00 | 0.00 | 100 | 1015.6 |
| 20260508152626 | 54 | 342 | 11.3 | 20.9 | 0.00 | 0.00 | 0.00 | 100 | 1015.5 |
| 20260508152121 | 55 | 309 | 10.4 | 17.4 | 0.00 | 0.00 | 0.00 | 100 | 1015.4 |
| 20260508151416 | 55 | 295 | 8.7 | 16.5 | 0.00 | 0.00 | 0.00 | 100 | 1015.2 |
| 20260508151403 | 55 | 298 | 9.6 | 17.4 | 0.00 | 0.00 | 0.00 | 100 | 1015.3 |
| 20260508150350 | 54 | 347 | 9.6 | 20.0 | 0.00 | 0.00 | 0.00 | 100 | 1015.1 |
| 20260508145849 | 54 | 306 | 9.6 | 20.0 | 0.00 | 0.00 | 0.00 | 100 | 1015.0 |
| 20260508145349 | 55 | 298 | 7.8 | 16.5 | 0.00 | 0.00 | 0.00 | 100 | 1015.0 |
| 20260508144850 | 55 | 303 | 8.7 | 18.2 | 0.00 | 0.00 | 0.00 | 100 | 1015.0 |
| 20260508144620 | 55 | 323 | 8.7 | 18.2 | 0.00 | 0.00 | 0.00 | 100 | 1014.9 |
| 20260508143849 | 54 | 311 | 9.6 | 18.2 | 0.00 | 0.00 | 0.00 | 100 | 1014.9 |
| 20260508143349 | 54 | 291 | 9.6 | 18.2 | 0.00 | 0.00 | 0.00 | 100 | 1014.8 |
| 20260508142848 | 55 | 287 | 8.7 | 17.4 | 0.00 | 0.00 | 0.00 | 100 | 1014.8 |
| 20260508142351 | 55 | 327 | 8.7 | 16.5 | 0.00 | 0.00 | 0.00 | 100 | 1014.8 |
| 20260508141848 | 54 | 308 | 9.6 | 20.0 | 0.00 | 0.00 | 0.00 | 100 | 1014.7 |
| 20260508141349 | 54 | 281 | 10.4 | 20.0 | 0.00 | 0.00 | 0.00 | 100 | 1014.8 |
| 20260508140846 | 54 | 303 | 10.4 | 19.1 | 0.00 | 0.00 | 0.00 | 100 | 1014.8 |
| 20260508140346 | 55 | 343 | 9.6 | 19.1 | 0.00 | 0.00 | 0.00 | 100 | 1014.7 |
| 20260508135844 | 54 | 331 | 9.6 | 22.6 | 0.00 | 0.00 | 0.00 | 100 | 1014.7 |
| 20260508135345 | 53 | 297 | 9.6 | 22.6 | 0.00 | 0.00 | 0.00 | 100 | 1014.5 |
| 20260508134844 | 54 | 303 | 9.6 | 16.5 | 0.00 | 0.00 | 0.00 | 100 | 1014.4 |
| 20260508134346 | 53 | 311 | 8.7 | 16.5 | 0.00 | 0.00 | 0.00 | 100 | 1014.4 |
| 20260508133845 | 52 | 304 | 10.4 | 19.1 | 0.00 | 0.00 | 0.00 | 100 | 1014.3 |
| 20260508133348 | 52 | 262 | 12.2 | 19.1 | 0.00 | 0.00 | 0.00 | 100 | 1014.2 |
| 20260508132840 | 53 | 299 | 13.0 | 19.1 | 0.00 | 0.00 | 0.00 | 100 | 1014.2 |
| 20260508132339 | 53 | 290 | 11.3 | 20.0 | 0.00 | 0.00 | 0.00 | 100 | 1014.1 |
| 20260508131836 | 53 | 319 | 10.4 | 20.9 | 0.00 | 0.00 | 0.00 | 100 | 1014.0 |
| 20260508131335 | 53 | 287 | 11.3 | 20.9 | 0.00 | 0.00 | 0.00 | 100 | 1014.0 |
| 20260508130835 | 54 | 336 | 9.6 | 16.5 | 0.00 | 0.00 | 0.00 | 100 | 1013.9 |
| 20260508130348 | 55 | 314 | 9.6 | 17.4 | 0.00 | 0.00 | 0.00 | 100 | 1013.7 |
| 20260508130338 | 54 | 311 | 9.6 | 17.4 | 0.00 | 0.00 | 0.00 | 100 | 1013.8 |
| 20260508125334 | 56 | 263 | 11.3 | 18.2 | 0.00 | 0.00 | 0.00 | 100 | 1013.4 |
| 20260508124833 | 56 | 300 | 12.2 | 18.2 | 0.00 | 0.00 | 0.00 | 100 | 1013.4 |
| 20260508124331 | 55 | 314 | 10.4 | 17.4 | 0.00 | 0.00 | 0.00 | 100 | 1013.3 |
| 20260508123832 | 54 | 309 | 9.6 | 16.5 | 0.00 | 0.00 | 0.00 | 100 | 1013.2 |
| 20260508123333 | 54 | 325 | 9.6 | 18.2 | 0.00 | 0.00 | 0.00 | 100 | 1013.2 |
| 20260508122832 | 54 | 284 | 9.6 | 18.2 | 0.00 | 0.00 | 0.00 | 100 | 1013.1 |
| 20260508122334 | 55 | 296 | 8.7 | 15.6 | 0.00 | 0.00 | 0.00 | 100 | 1013.1 |
| 20260508121834 | 55 | 293 | 9.6 | 15.6 | 0.00 | 0.00 | 0.00 | 100 | 1013.0 |
| 20260508121333 | 55 | 284 | 11.3 | 17.4 | 0.00 | 0.00 | 0.00 | 100 | 1013.0 |
| 20260508120833 | 55 | 309 | 11.3 | 17.4 | 0.00 | 0.00 | 0.00 | 100 | 1012.9 |
| 20260508120604 | 54 | 297 | 11.3 | 17.4 | 0.00 | 0.00 | 0.00 | 100 | 1012.9 |
| 20260508115830 | 54 | 295 | 9.6 | 17.4 | 0.00 | 0.00 | 0.00 | 100 | 1012.9 |
| 20260508115328 | 54 | 323 | 9.6 | 16.5 | 0.00 | 0.00 | 0.00 | 100 | 1012.8 |
| 20260508114828 | 55 | 307 | 10.4 | 18.2 | 0.00 | 0.00 | 0.00 | 100 | 1012.7 |
| 20260508114328 | 56 | 300 | 10.4 | 19.1 | 0.00 | 0.00 | 0.00 | 100 | 1012.6 |
| 20260508113830 | 56 | 261 | 10.4 | 19.1 | 0.00 | 0.00 | 0.00 | 100 | 1012.2 |
| 20260508113328 | 56 | 299 | 11.3 | 20.9 | 0.00 | 0.00 | 0.00 | 100 | 1012.2 |
| 20260508112827 | 56 | 268 | 13.0 | 21.7 | 0.00 | 0.00 | 0.00 | 100 | 1012.2 |
| 20260508112329 | 56 | 254 | 13.9 | 21.7 | 0.00 | 0.00 | 0.00 | 100 | 1012.2 |
| 20260508111828 | 55 | 244 | 11.3 | 21.7 | 0.00 | 0.00 | 0.00 | 100 | 1012.0 |
| 20260508111327 | 55 | 236 | 12.2 | 21.7 | 0.00 | 0.00 | 0.00 | 100 | 1012.0 |
| 20260508110829 | 55 | 217 | 13.0 | 19.1 | 0.00 | 0.00 | 0.00 | 100 | 1012.0 |
| 20260508110607 | 55 | 241 | 11.3 | 18.2 | 0.00 | 0.00 | 0.00 | 100 | 1012.1 |
| 20260508105824 | 55 | 286 | 10.4 | 20.9 | 0.00 | 0.00 | 0.00 | 100 | 1012.1 |
| 20260508105319 | 55 | 258 | 11.3 | 20.9 | 0.00 | 0.00 | 0.00 | 100 | 1011.9 |
| 20260508104814 | 55 | 261 | 12.2 | 20.9 | 0.00 | 0.00 | 0.00 | 100 | 1011.9 |
| 20260508104310 | 54 | 226 | 13.9 | 20.9 | 0.00 | 0.00 | 0.00 | 100 | 1011.8 |
| 20260508104037 | 54 | 264 | 13.9 | 20.9 | 0.00 | 0.00 | 0.00 | 100 | 1011.8 |
| 20260508103306 | 54 | 234 | 13.0 | 20.0 | 0.00 | 0.00 | 0.00 | 100 | 1011.7 |
| 20260508102827 | 54 | 273 | 11.3 | 20.9 | 0.00 | 0.00 | 0.00 | 100 | 1011.6 |
| 20260508102815 | 54 | 252 | 13.0 | 20.9 | 0.00 | 0.00 | 0.00 | 100 | 1011.7 |
| 20260508102035 | 54 | 259 | 10.4 | 19.1 | 0.00 | 0.00 | 0.00 | 100 | 1011.5 |
| 20260508101305 | 54 | 259 | 7.8 | 15.6 | 0.00 | 0.00 | 0.00 | 100 | 1011.5 |
| 20260508100804 | 54 | 267 | 7.0 | 14.8 | 0.00 | 0.00 | 0.00 | 100 | 1011.4 |
| 20260508100305 | 54 | 275 | 8.7 | 17.4 | 0.00 | 0.00 | 0.00 | 100 | 1011.4 |
| 20260508100026 | 53 | 252 | 9.6 | 17.4 | 0.00 | 0.00 | 0.00 | 100 | 1011.3 |
| 20260508095306 | 53 | 250 | 10.4 | 17.4 | 0.00 | 0.00 | 0.00 | 100 | 1011.3 |
| 20260508095038 | 53 | 263 | 11.3 | 17.4 | 0.00 | 0.00 | 0.00 | 100 | 1011.2 |
| 20260508094305 | 52 | 246 | 10.4 | 18.2 | 0.00 | 0.00 | 0.00 | 100 | 1011.2 |
| 20260508093804 | 52 | 244 | 11.3 | 18.2 | 0.00 | 0.00 | 0.00 | 100 | 1011.2 |
| 20260508093543 | 52 | 256 | 11.3 | 19.1 | 0.00 | 0.00 | 0.00 | 100 | 1011.2 |
| 20260508092804 | 52 | 256 | 12.2 | 19.1 | 0.00 | 0.00 | 0.00 | 100 | 1011.2 |
| 20260508092300 | 53 | 263 | 12.2 | 21.7 | 0.00 | 0.00 | 0.00 | 100 | 1011.1 |
| 20260508091757 | 53 | 265 | 12.2 | 23.5 | 0.00 | 0.00 | 0.00 | 100 | 1011.0 |
| 20260508091257 | 53 | 252 | 12.2 | 23.5 | 0.00 | 0.00 | 0.00 | 100 | 1010.9 |
| 20260508090759 | 53 | 228 | 12.2 | 24.3 | 0.00 | 0.00 | 0.00 | 100 | 1010.9 |
| 20260508090255 | 53 | 247 | 10.4 | 24.3 | 0.00 | 0.00 | 0.00 | 100 | 1010.8 |
| 20260508085755 | 53 | 291 | 9.6 | 17.4 | 0.00 | 0.00 | 0.00 | 100 | 1010.8 |
| 20260508085255 | 52 | 240 | 10.4 | 19.1 | 0.00 | 0.00 | 0.00 | 100 | 1010.7 |
| 20260508084755 | 52 | 249 | 11.3 | 19.1 | 0.00 | 0.00 | 0.00 | 100 | 1010.6 |
| 20260508084256 | 51 | 237 | 12.2 | 20.0 | 0.00 | 0.00 | 0.00 | 100 | 1010.4 |
| 20260508083756 | 51 | 240 | 12.2 | 20.0 | 0.00 | 0.00 | 0.00 | 100 | 1010.4 |
| 20260508083255 | 51 | 227 | 12.2 | 20.0 | 0.00 | 0.00 | 0.00 | 100 | 1010.5 |
| 20260508082755 | 51 | 234 | 12.2 | 21.7 | 0.00 | 0.00 | 0.00 | 100 | 1010.4 |
| 20260508082255 | 51 | 257 | 12.2 | 21.7 | 0.00 | 0.00 | 0.00 | 100 | 1010.5 |
| 20260508081757 | 51 | 237 | 13.0 | 20.9 | 0.00 | 0.00 | 0.00 | 100 | 1010.3 |
| 20260508081541 | 51 | 247 | 13.9 | 20.9 | 0.00 | 0.00 | 0.00 | 100 | 1010.2 |
| 20260508080814 | 50 | 269 | 14.8 | 21.7 | 0.00 | 0.00 | 0.00 | 100 | 1010.2 |
| 20260508080804 | 50 | 238 | 13.0 | 19.1 | 0.00 | 0.00 | 0.00 | 100 | 1010.2 |
| 20260508075756 | 50 | 235 | 13.9 | 21.7 | 0.00 | 0.00 | 0.00 | 100 | 1010.2 |
| 20260508075257 | 50 | 249 | 11.3 | 20.9 | 0.00 | 0.00 | 0.00 | 100 | 1010.2 |
| 20260508074750 | 51 | 273 | 8.7 | 20.9 | 0.00 | 0.00 | 0.00 | 100 | 1010.4 |
| 20260508074529 | 51 | 233 | 7.0 | 12.2 | 0.00 | 0.00 | 0.00 | 100 | 1010.5 |
| 20260508073756 | 51 | 272 | 5.2 | 12.2 | 0.00 | 0.00 | 0.00 | 100 | 1010.5 |
| 20260508073303 | 51 | 259 | 2.6 | 6.1 | 0.00 | 0.00 | 0.00 | 100 | 1010.3 |
| 20260508073253 | 51 | 274 | 3.5 | 10.4 | 0.00 | 0.00 | 0.00 | 100 | 1010.4 |
| 20260508072249 | 50 | 271 | 2.6 | 5.2 | 0.00 | 0.00 | 0.00 | 100 | 1010.3 |
| 20260508071748 | 50 | 275 | 1.7 | 7.0 | 0.00 | 0.00 | 0.00 | 100 | 1010.3 |
| 20260508071249 | 50 | 299 | 3.5 | 10.4 | 0.00 | 0.00 | 0.00 | 100 | 1010.1 |
| 20260508070747 | 50 | 230 | 3.5 | 10.4 | 0.00 | 0.00 | 0.00 | 100 | 1010.1 |
| 20260508070248 | 49 | 292 | 1.7 | 5.2 | 0.00 | 0.00 | 0.00 | 100 | 1009.9 |
| 20260508065742 | 49 | 94 | 1.7 | 3.5 | 0.00 | 0.00 | 0.00 | 100 | 1009.8 |
| 20260508065242 | 49 | 94 | 1.7 | 3.5 | 0.00 | 0.00 | 0.00 | 100 | 1009.8 |
| 20260508065008 | 49 | 99 | 2.6 | 5.2 | 0.00 | 0.00 | 0.00 | 100 | 1009.6 |
| 20260508064545 | 48 | 99 | 2.6 | 7.0 | 0.00 | 0.00 | 0.00 | 100 | 1009.6 |
| 20260508063735 | 48 | 133 | 3.5 | 7.0 | 0.00 | 0.00 | 0.00 | 100 | 1009.5 |
| 20260508063233 | 48 | 145 | 3.5 | 11.3 | 0.00 | 0.00 | 0.00 | 100 | 1009.4 |
| 20260508062731 | 48 | 227 | 5.2 | 11.3 | 0.00 | 0.00 | 0.00 | 100 | 1009.4 |
| 20260508062243 | 48 | 249 | 4.3 | 11.3 | 0.00 | 0.00 | 0.00 | 100 | 1009.2 |
| 20260508062232 | 48 | 227 | 6.1 | 11.3 | 0.00 | 0.00 | 0.00 | 100 | 1009.3 |
| 20260508061232 | 47 | 265 | 3.5 | 8.7 | 0.00 | 0.00 | 0.00 | 100 | 1009.3 |
| 20260508060735 | 47 | 259 | 4.3 | 9.6 | 0.00 | 0.00 | 0.00 | 100 | 1009.2 |
| 20260508060253 | 46 | 255 | 5.2 | 9.6 | 0.00 | 0.00 | 0.00 | 100 | 1009.2 |
| 20260508060241 | 47 | 265 | 6.1 | 9.6 | 0.00 | 0.00 | 0.00 | 100 | 1009.1 |
| 20260508055514 | 46 | 252 | 3.5 | 8.7 | 0.00 | 0.00 | 0.00 | 100 | 1009.1 |
| 20260508055056 | 45 | 237 | 3.5 | 7.0 | 0.00 | 0.00 | 0.00 | 100 | 1008.9 |
| 20260508054736 | 45 | 226 | 3.5 | 6.1 | 0.00 | 0.00 | 0.00 | 100 | 1009.0 |
| 20260508053956 | 45 | 259 | 3.5 | 7.0 | 0.00 | 0.00 | 0.00 | 100 | 1008.9 |
| 20260508053227 | 45 | 257 | 4.3 | 8.7 | 0.00 | 0.00 | 0.00 | 100 | 1008.9 |
| 20260508052726 | 44 | 249 | 4.3 | 8.7 | 0.00 | 0.00 | 0.00 | 100 | 1008.8 |
| 20260508052226 | 44 | 230 | 2.6 | 7.0 | 0.00 | 0.00 | 0.00 | 100 | 1008.8 |
| 20260508051727 | 43 | 237 | 2.6 | 6.1 | 0.00 | 0.00 | 0.00 | 100 | 1008.8 |
| 20260508051227 | 43 | 199 | 2.6 | 6.1 | 0.00 | 0.00 | 0.00 | 100 | 1008.8 |
| 20260508050726 | 42 | 294 | 1.7 | 5.2 | 0.00 | 0.00 | 0.00 | 100 | 1008.7 |
| 20260508050230 | 42 | 254 | 2.6 | 4.3 | 0.00 | 0.00 | 0.00 | 100 | 1008.7 |
| 20260508045727 | 42 | 254 | 3.5 | 6.1 | 0.00 | 0.00 | 0.00 | 100 | 1008.7 |
| 20260508045229 | 42 | 256 | 3.5 | 6.1 | 0.00 | 0.00 | 0.00 | 100 | 1008.6 |
| 20260508044727 | 42 | 256 | 4.3 | 7.8 | 0.00 | 0.00 | 0.00 | 100 | 1008.7 |
| 20260508044222 | 41 | 274 | 4.3 | 8.7 | 0.00 | 0.00 | 0.00 | 100 | 1008.5 |
| 20260508043722 | 40 | 290 | 3.5 | 8.7 | 0.00 | 0.00 | 0.00 | 100 | 1008.4 |
| 20260508043220 | 40 | 259 | 1.7 | 3.5 | 0.00 | 0.00 | 0.00 | 100 | 1008.4 |
| 20260508042721 | 40 | 259 | 1.7 | 3.5 | 0.00 | 0.00 | 0.00 | 100 | 1008.4 |
| 20260508042220 | 40 | 257 | 0.9 | 3.5 | 0.00 | 0.00 | 0.00 | 100 | 1008.3 |
| 20260508041945 | 40 | 256 | 0.9 | 1.7 | 0.00 | 0.00 | 0.00 | 100 | 1008.4 |
| 20260508041212 | 40 | 257 | 0.9 | 2.6 | 0.00 | 0.00 | 0.00 | 100 | 1008.4 |
| 20260508040708 | 40 | 257 | 1.7 | 5.2 | 0.00 | 0.00 | 0.00 | 100 | 1008.3 |
| 20260508040208 | 41 | 257 | 2.6 | 5.2 | 0.00 | 0.00 | 0.00 | 100 | 1008.3 |
| 20260508035940 | 41 | 257 | 2.6 | 5.2 | 0.00 | 0.00 | 0.00 | 100 | 1008.4 |
| 20260508035205 | 41 | 257 | 2.6 | 5.2 | 0.00 | 0.00 | 0.00 | 100 | 1008.3 |
| 20260508034706 | 42 | 265 | 2.6 | 3.5 | 0.00 | 0.00 | 0.00 | 100 | 1008.3 |
| 20260508034442 | 42 | 292 | 2.6 | 6.1 | 0.00 | 0.00 | 0.00 | 100 | 1008.4 |
| 20260508033704 | 42 | 292 | 3.5 | 6.1 | 0.00 | 0.00 | 0.00 | 100 | 1008.3 |
| 20260508033202 | 42 | 290 | 2.6 | 6.1 | 0.00 | 0.00 | 0.00 | 100 | 1008.2 |
| 20260508032704 | 42 | 263 | 3.5 | 6.1 | 0.00 | 0.00 | 0.00 | 100 | 1008.1 |
| 20260508032202 | 42 | 249 | 3.5 | 6.1 | 0.00 | 0.00 | 0.00 | 100 | 1008.1 |
| 20260508031706 | 43 | 270 | 2.6 | 3.5 | 0.00 | 0.00 | 0.00 | 100 | 1008.1 |
| 20260508031448 | 43 | 257 | 1.7 | 3.5 | 0.00 | 0.00 | 0.00 | 100 | 1008.1 |
| 20260508030704 | 43 | 252 | 0.9 | 2.6 | 0.00 | 0.00 | 0.00 | 100 | 1008.1 |
| 20260508030203 | 43 | 252 | 1.7 | 3.5 | 0.00 | 0.00 | 0.00 | 100 | 1008.1 |
| 20260508025700 | 43 | 252 | 2.6 | 6.1 | 0.00 | 0.00 | 0.00 | 100 | 1008.1 |
| 20260508025154 | 44 | 252 | 3.5 | 6.1 | 0.00 | 0.00 | 0.00 | 100 | 1008.1 |
| 20260508024656 | 44 | 239 | 4.3 | 7.0 | 0.00 | 0.00 | 0.00 | 100 | 1008.1 |
| 20260508024156 | 44 | 232 | 4.3 | 7.0 | 0.00 | 0.00 | 0.00 | 100 | 1008.2 |
| 20260508023654 | 44 | 242 | 3.5 | 6.1 | 0.00 | 0.00 | 0.00 | 100 | 1008.1 |
| 20260508023154 | 44 | 252 | 3.5 | 4.3 | 0.00 | 0.00 | 0.00 | 100 | 1008.1 |
| 20260508022654 | 44 | 256 | 3.5 | 6.1 | 0.00 | 0.00 | 0.00 | 100 | 1008.1 |
| 20260508022215 | 45 | 264 | 2.6 | 6.1 | 0.00 | 0.00 | 0.00 | 100 | 1008.1 |
| 20260508022204 | 44 | 257 | 2.6 | 6.1 | 0.00 | 0.00 | 0.00 | 100 | 1008.1 |
| 20260508021436 | 45 | 264 | 1.7 | 6.1 | 0.00 | 0.00 | 0.00 | 100 | 1008.0 |
| 20260508020921 | 46 | 273 | 1.7 | 2.6 | 0.00 | 0.00 | 0.00 | 100 | 1008.0 |
| 20260508020157 | 46 | 272 | 1.7 | 2.6 | 0.00 | 0.00 | 0.00 | 100 | 1008.0 |
| 20260508015656 | 47 | 273 | 1.7 | 2.6 | 0.00 | 0.00 | 0.00 | 100 | 1007.9 |
| 20260508015432 | 47 | 273 | 0.9 | 2.6 | 0.00 | 0.00 | 0.00 | 100 | 1007.9 |
| 20260508014654 | 48 | 273 | 0.0 | 1.7 | 0.00 | 0.00 | 0.00 | 100 | 1007.7 |
| 20260508014154 | 48 | 273 | 0.9 | 3.5 | 0.00 | 0.00 | 0.00 | 100 | 1007.8 |
| 20260508013656 | 48 | 273 | 0.9 | 3.5 | 0.00 | 0.00 | 0.00 | 100 | 1007.8 |
| 20260508013154 | 49 | 272 | 0.0 | 2.6 | 0.00 | 0.00 | 0.00 | 100 | 1007.7 |
| 20260508012706 | 49 | 273 | 1.7 | 5.2 | 0.00 | 0.00 | 0.00 | 100 | 1007.6 |
| 20260508012655 | 49 | 273 | 0.9 | 5.2 | 0.00 | 0.00 | 0.00 | 100 | 1007.7 |
| 20260508011648 | 49 | 259 | 1.7 | 5.2 | 0.00 | 0.00 | 0.00 | 100 | 1007.7 |
| 20260508011149 | 50 | 258 | 2.6 | 6.1 | 0.00 | 0.00 | 0.00 | 100 | 1007.7 |
| 20260508010649 | 50 | 257 | 3.5 | 6.1 | 0.00 | 0.00 | 0.00 | 100 | 1007.7 |
| 20260508010423 | 50 | 223 | 4.3 | 7.0 | 0.00 | 0.00 | 0.00 | 100 | 1007.7 |
| 20260508005651 | 50 | 247 | 3.5 | 7.0 | 0.00 | 0.00 | 0.00 | 100 | 1007.7 |
| 20260508005149 | 50 | 246 | 3.5 | 7.0 | 0.00 | 0.00 | 0.00 | 100 | 1007.7 |
| 20260508004649 | 50 | 241 | 3.5 | 7.8 | 0.00 | 0.00 | 0.00 | 100 | 1007.7 |
| 20260508004424 | 50 | 245 | 2.6 | 7.8 | 0.00 | 0.00 | 0.00 | 100 | 1007.7 |
| 20260508003917 | 50 | 229 | 2.6 | 6.1 | 0.00 | 0.00 | 0.00 | 100 | 1007.7 |
| 20260508003144 | 50 | 240 | 1.7 | 4.3 | 0.00 | 0.00 | 0.00 | 100 | 1007.7 |
| 20260508002644 | 50 | 240 | 3.5 | 7.0 | 0.00 | 0.00 | 0.00 | 100 | 1007.8 |
| 20260508002149 | 50 | 240 | 3.5 | 7.0 | 0.00 | 0.00 | 0.00 | 100 | 1007.7 |
| 20260508001643 | 50 | 207 | 3.5 | 5.2 | 0.00 | 0.00 | 0.00 | 100 | 1007.7 |
| 20260508001132 | 50 | 176 | 3.5 | 6.1 | 0.00 | 0.00 | 0.00 | 100 | 1007.7 |
| 20260508000633 | 50 | 192 | 3.5 | 7.0 | 0.00 | 0.00 | 0.00 | 100 | 1007.7 |
| 20260508000137 | 50 | 191 | 4.3 | 7.8 | 0.00 | 0.00 | 0.00 | 100 | 1007.7 |
| 20260507235638 | 50 | 237 | 5.2 | 9.6 | 0.00 | 0.00 | 0.00 | 100 | 1007.6 |
| 20260507235413 | 50 | 228 | 5.2 | 9.6 | 0.00 | 0.00 | 0.00 | 100 | 1007.6 |
| 20260507234632 | 50 | 226 | 5.2 | 9.6 | 0.00 | 0.00 | 0.00 | 100 | 1007.6 |
| 20260507234137 | 50 | 227 | 4.3 | 9.6 | 0.00 | 0.00 | 0.00 | 100 | 1007.6 |
| 20260507233630 | 51 | 226 | 4.3 | 9.6 | 0.00 | 0.00 | 0.00 | 100 | 1007.7 |
| 20260507233403 | 51 | 237 | 6.1 | 13.0 | 0.00 | 0.00 | 0.00 | 100 | 1007.5 |
| 20260507232631 | 51 | 241 | 6.1 | 13.0 | 0.00 | 0.00 | 0.00 | 100 | 1007.4 |
| 20260507232130 | 51 | 187 | 6.1 | 11.3 | 0.00 | 0.00 | 0.00 | 100 | 1007.4 |
| 20260507231631 | 51 | 216 | 7.0 | 11.3 | 0.00 | 0.00 | 0.00 | 100 | 1007.4 |
| 20260507231409 | 51 | 207 | 7.0 | 11.3 | 0.00 | 0.00 | 0.00 | 100 | 1007.4 |
| 20260507230632 | 51 | 250 | 7.0 | 12.2 | 0.00 | 0.00 | 0.00 | 100 | 1007.4 |
| 20260507230130 | 51 | 226 | 7.0 | 12.2 | 0.00 | 0.00 | 0.00 | 100 | 1007.3 |
| 20260507225629 | 51 | 230 | 7.0 | 12.2 | 0.00 | 0.00 | 0.00 | 100 | 1007.3 |
| 20260507225128 | 51 | 217 | 7.0 | 12.2 | 0.00 | 0.00 | 0.00 | 100 | 1007.3 |
| 20260507224629 | 51 | 230 | 7.0 | 15.6 | 0.00 | 0.00 | 0.00 | 100 | 1007.3 |
| 20260507224129 | 51 | 211 | 7.8 | 15.6 | 0.00 | 0.00 | 0.00 | 100 | 1007.2 |
| 20260507223858 | 51 | 215 | 7.8 | 14.8 | 0.00 | 0.00 | 0.00 | 100 | 1007.3 |
| 20260507223127 | 51 | 242 | 7.8 | 13.0 | 0.00 | 0.00 | 0.00 | 100 | 1007.3 |
| 20260507222627 | 51 | 222 | 7.0 | 13.0 | 0.00 | 0.00 | 0.00 | 100 | 1007.2 |
| 20260507222127 | 51 | 188 | 7.0 | 10.4 | 0.00 | 0.00 | 0.00 | 100 | 1007.2 |
| 20260507221625 | 51 | 196 | 7.0 | 13.0 | 0.00 | 0.00 | 0.00 | 100 | 1007.2 |
| 20260507221126 | 51 | 226 | 6.1 | 13.0 | 0.00 | 0.00 | 0.00 | 100 | 1007.2 |
| 20260507220625 | 51 | 202 | 5.2 | 8.7 | 0.00 | 0.00 | 0.00 | 100 | 1007.3 |
| 20260507220126 | 51 | 219 | 7.0 | 11.3 | 0.00 | 0.00 | 0.00 | 100 | 1007.3 |
| 20260507215625 | 51 | 215 | 7.0 | 12.2 | 0.00 | 0.00 | 0.00 | 100 | 1007.3 |
| 20260507215403 | 51 | 216 | 6.1 | 12.2 | 0.00 | 0.00 | 0.00 | 100 | 1007.4 |
| 20260507214625 | 51 | 221 | 5.2 | 9.6 | 0.00 | 0.00 | 0.00 | 100 | 1007.4 |
| 20260507214125 | 51 | 203 | 4.3 | 8.7 | 0.00 | 0.00 | 0.00 | 100 | 1007.4 |
| 20260507213625 | 51 | 199 | 4.3 | 9.6 | 0.00 | 0.00 | 0.00 | 100 | 1007.4 |
| 20260507213126 | 51 | 209 | 5.2 | 12.2 | 0.00 | 0.00 | 0.00 | 100 | 1007.4 |
| 20260507212628 | 52 | 195 | 6.1 | 12.2 | 0.00 | 0.00 | 0.00 | 100 | 1007.3 |
| 20260507212127 | 52 | 219 | 6.1 | 13.0 | 0.00 | 0.00 | 0.00 | 100 | 1007.3 |
| 20260507211850 | 52 | 208 | 5.2 | 13.0 | 0.00 | 0.00 | 0.00 | 100 | 1007.4 |
| 20260507211126 | 52 | 202 | 5.2 | 10.4 | 0.00 | 0.00 | 0.00 | 100 | 1007.3 |
| 20260507210619 | 52 | 193 | 5.2 | 10.4 | 0.00 | 0.00 | 0.00 | 100 | 1007.2 |
| 20260507210120 | 52 | 227 | 5.2 | 9.6 | 0.00 | 0.00 | 0.00 | 100 | 1007.0 |
| 20260507205849 | 52 | 214 | 6.1 | 13.0 | 0.00 | 0.00 | 0.00 | 100 | 1007.1 |
| 20260507205119 | 52 | 248 | 6.1 | 13.0 | 0.00 | 0.00 | 0.00 | 100 | 1007.1 |
| 20260507204619 | 52 | 229 | 7.0 | 13.0 | 0.00 | 0.00 | 0.00 | 100 | 1007.0 |
| 20260507204126 | 52 | 194 | 7.0 | 15.6 | 0.00 | 0.00 | 0.00 | 100 | 1007.0 |
| 20260507203621 | 53 | 207 | 7.8 | 15.6 | 0.00 | 0.00 | 0.00 | 100 | 1007.0 |
| 20260507203152 | 53 | 213 | 6.1 | 14.8 | 0.00 | 0.00 | 0.00 | 100 | 1006.9 |
| 20260507203130 | 53 | 227 | 7.0 | 14.8 | 0.00 | 0.00 | 0.00 | 100 | 1007.0 |
| 20260507202853 | 53 | 192 | 5.2 | 11.3 | 0.00 | 0.00 | 0.00 | 100 | 1006.8 |
| 20260507201608 | 53 | 194 | 6.1 | 11.3 | 0.00 | 0.00 | 0.00 | 100 | 1006.6 |
| 20260507201105 | 53 | 217 | 5.2 | 10.4 | 0.00 | 0.00 | 0.00 | 100 | 1006.6 |
| 20260507200607 | 53 | 218 | 5.2 | 11.3 | 0.00 | 0.00 | 0.00 | 100 | 1006.5 |
| 20260507200117 | 53 | 203 | 6.1 | 15.6 | 0.00 | 0.00 | 0.00 | 100 | 1006.5 |
| 20260507195601 | 53 | 167 | 6.1 | 15.6 | 0.00 | 0.00 | 0.00 | 100 | 1006.5 |
| 20260507195059 | 53 | 200 | 5.2 | 12.2 | 0.00 | 0.00 | 0.00 | 100 | 1006.5 |
| 20260507194558 | 54 | 178 | 6.1 | 11.3 | 0.00 | 0.00 | 0.00 | 100 | 1006.5 |
| 20260507194327 | 54 | 186 | 7.8 | 16.5 | 0.00 | 0.00 | 0.00 | 100 | 1006.5 |
| 20260507193557 | 54 | 216 | 7.8 | 16.5 | 0.00 | 0.00 | 0.00 | 100 | 1006.5 |
| 20260507193057 | 54 | 203 | 7.8 | 12.2 | 0.00 | 0.00 | 0.00 | 100 | 1006.4 |
| 20260507192557 | 55 | 210 | 8.7 | 20.9 | 0.00 | 0.00 | 0.00 | 100 | 1006.4 |
| 20260507192056 | 55 | 228 | 9.6 | 20.9 | 0.00 | 0.00 | 0.00 | 100 | 1006.3 |
| 20260507191559 | 55 | 253 | 9.6 | 13.0 | 0.00 | 0.00 | 0.00 | 100 | 1006.3 |
| 20260507191327 | 56 | 233 | 8.7 | 15.6 | 0.00 | 0.00 | 0.00 | 100 | 1006.3 |
| 20260507190554 | 56 | 219 | 7.8 | 15.6 | 0.00 | 0.00 | 0.00 | 100 | 1006.4 |
| 20260507190054 | 55 | 232 | 7.0 | 13.0 | 0.00 | 0.00 | 0.00 | 100 | 1006.3 |
| 20260507185550 | 55 | 217 | 7.0 | 14.8 | 0.00 | 0.00 | 0.00 | 100 | 1006.4 |
| 20260507185042 | 56 | 213 | 7.8 | 14.8 | 0.00 | 0.00 | 0.00 | 100 | 1006.3 |
| 20260507184537 | 55 | 203 | 7.8 | 14.8 | 0.00 | 0.00 | 0.00 | 100 | 1006.2 |
| 20260507184032 | 55 | 245 | 7.0 | 14.8 | 0.00 | 0.00 | 0.00 | 100 | 1006.2 |
| 20260507183533 | 56 | 221 | 7.8 | 14.8 | 0.00 | 0.00 | 0.00 | 100 | 1006.2 |
| 20260507183035 | 56 | 211 | 9.6 | 15.6 | 0.00 | 0.00 | 0.00 | 100 | 1006.1 |